Flag for Poland Weather past 2 weeks in Koszalin, Poland

Now
36 °F

Fog.


Feels Like: 30 °F
Forecast: 41 / 53 °F
Wind: 7 mph from South

Location: Koszalin

Current Time: Oct 25, 2014 at 7:35:50 PM

Latest Report: Oct 25, 2014 at 6:00 PM


Visibility: 4 mi

Pressure: 30.18 "Hg

Humidity: 83%

Dew point: 31 °F

Location of KoszalinLocation

Historic Weather in Koszalin — Graph

°F

Koszalin temperature yesterday

Maximum temperature yesterday: 48 °F (at 4:00 PM)
Minimum temperature yesterday: 39 °F (at 11:00 PM)
Average temperature yesterday: 42 °F

Past Weeks' High & Low Weather Summary

 TemperatureHumidityPressure
High68 °F (Oct 19, 4:00 PM)95% (Oct 16, 8:00 AM)30.32 "Hg (Oct 16, 8:00 AM)
Low33 °F (Oct 25, 8:00 AM)64% (Oct 19, 3:00 PM)29.47 "Hg (Oct 22, 12:00 AM)
Average52 °F86%29.92 "Hg
* Reported Oct 10 6:00 PM — Oct 25 6:00 PM, Koszalin, Weather by CustomWeather, © 2014

Note: Actual official high and low records may vary slightly from our data, if they occured in-between our weather recording intervals... More about our weather records

Advertising

Koszalin weather history for previous 24 hours

 ConditionsComfort  
Time TempWeatherWind HumidityBarometerVisibility
6:00 PM
Oct 25
36 °FFog.7 mph83%30.18 "Hg4 mi
5:00 PM36 °FFog.7 mph82%30.17 "Hg5 mi
4:00 PM36 °FFog.7 mph81%30.18 "Hg5 mi
3:00 PM36 °FFog.7 mph80%30.17 "Hg6 mi
2:00 PM35 °FFog.7 mph80%30.18 "Hg5 mi
1:00 PM35 °FFog.7 mph79%30.19 "Hg5 mi
12:00 PM39 °FOvercast.6 mph68%30.19 "Hg8 mi
11:00 AM38 °FOvercast.7 mph71%30.19 "Hg8 mi
10:00 AM36 °FOvercast.7 mph74%30.19 "Hg8 mi
9:00 AM33 °FPartly sunny.6 mph80%30.21 "Hg7 mi
8:00 AM33 °FPartly sunny.5 mph81%30.21 "Hg7 mi
7:00 AM34 °FPassing clouds.6 mph81%30.21 "Hg7 mi
6:00 AM34 °FPassing clouds.6 mph80%30.21 "Hg7 mi
5:00 AM35 °FPassing clouds.6 mph81%30.22 "Hg7 mi
4:00 AM35 °FPassing clouds.5 mph79%30.24 "Hg7 mi
3:00 AM35 °FPassing clouds.6 mph75%30.24 "Hg7 mi
2:00 AM36 °FPassing clouds.5 mph73%30.26 "Hg8 mi
1:00 AM37 °FClear.5 mph73%30.26 "Hg8 mi
12:00 AM38 °FClear.5 mph73%30.27 "Hg8 mi
11:00 PM
Oct 24
39 °FPassing clouds.5 mph73%30.27 "Hg9 mi
10:00 PM40 °FClear.5 mph75%30.27 "Hg9 mi
9:00 PM41 °FClear.5 mph74%30.27 "Hg8 mi
8:00 PM42 °FPassing clouds.5 mph75%30.27 "Hg7 mi
7:00 PM44 °FPassing clouds.5 mph77%30.26 "Hg9 mi
Weather by CustomWeather, © 2014

See weather overviewHow to use our weather pages